Location: Indian Tree Observatory
(39.4030°N, 104.5929°W)
Time: 02:31:07
(UTC-07:00)

Envisat - Pass Details

Date: 28 November 2018
Orbit: 764 x 766 km, 98.2° (Epoch: 13 December)

Event Time Altitude Azimuth Distance (km) Brightness Sun altitude
Rises 18:46:23 0° 164° (SSE) 3,213 6.2 -24.7°
Reaches altitude 10° 18:48:41 10° 164° (SSE) 2,291 5.4 -25.1°
Enters shadow 18:50:03 19° 163° (SSE) 1,755 4.7 -25.4°
Exits shadow 18:53:22 77° 143° (SE) 787 2.9 -26.0°
Maximum altitude 18:53:44 85° 77° (ENE) 772 2.8 -26.1°
Drops below altitude 10° 18:58:50 10° 349° (NNW) 2,306 5.5 -27.1°
Sets 19:01:08 0° 348° (NNW) 3,236 6.3 -27.5°
